When you browse on this site, cookies collect data to enhance your experience and personalize the content and advertising you see.
Visit our Privacy Policy to learn more. By continuing to use the site, you agree to this use of cookies and data.
  • în România
  • Lista ţărilor
  • Pe 7 zile
  • Temperatura apei
  • Hartă satelitară
  • Meteo pe hartă
  • Widget-uri
  • user-avatar
    Intrare

    Meteo pe oră la Imbramowice

    Astăzi, 22 Februarie, Vineri

    Timp Temperatura Precipitaţii Vânt Presiune Umiditate
    00:00 +5°C° 1.1 mm 6 m/s 749 mmHg 91%
    01:00 +5°C° 0 mm 4 m/s 749 mmHg 91%
    02:00 +5°C° 0.6 mm 4 m/s 750 mmHg 92%
    03:00 +5°C° 0.6 mm 5 m/s 750 mmHg 93%
    04:00 +6°C° 0.6 mm 5 m/s 750 mmHg 94%
    05:00 +3°C° 0.2 mm 6 m/s 751 mmHg 91%
    06:00 +2°C° 0.2 mm 6 m/s 752 mmHg 88%
    07:00 +1°C° 0 mm 5 m/s 754 mmHg 84%
    08:00 0°C° 0 mm 5 m/s 755 mmHg 80%
    09:00 -1°C° 0 mm 5 m/s 756 mmHg 76%
    10:00 -3°C° 0 mm 6 m/s 757 mmHg 72%
    11:00 -2°C° 0 mm 6 m/s 758 mmHg 65%
    12:00 -2°C° 0 mm 6 m/s 759 mmHg 57%
    13:00 0°C° 0 mm 5 m/s 760 mmHg 48%
    14:00 -1°C° 0 mm 5 m/s 761 mmHg 47%
    15:00 -1°C° 0 mm 5 m/s 761 mmHg 46%
    16:00 -1°C° 0 mm 5 m/s 761 mmHg 46%
    17:00 -2°C° 0 mm 4 m/s 762 mmHg 49%
    18:00 -3°C° 0 mm 4 m/s 763 mmHg 53%
    19:00 -4°C° 0 mm 3 m/s 764 mmHg 56%
    20:00 -4°C° 0 mm 3 m/s 764 mmHg 56%
    21:00 -4°C° 0 mm 2 m/s 765 mmHg 55%
    22:00 -4°C° 0 mm 2 m/s 765 mmHg 54%
    23:00 -4°C° 0 mm 2 m/s 765 mmHg 52%

    Mâine, 23 Februarie, Sâmbătă

    Timp Temperatura Precipitaţii Vânt Presiune Umiditate
    00:00 -4°C° 0 mm 2 m/s 766 mmHg 50%
    01:00 -4°C° 0 mm 2 m/s 766 mmHg 48%
    02:00 -2°C° 0 mm 1 m/s 766 mmHg 48%
    03:00 -2°C° 0 mm 1 m/s 766 mmHg 47%
    04:00 -2°C° 0 mm 1 m/s 766 mmHg 47%
    05:00 -2°C° 0 mm 1 m/s 766 mmHg 47%
    06:00 -2°C° 0 mm 1 m/s 766 mmHg 47%
    07:00 -3°C° 0 mm 1 m/s 766 mmHg 47%
    08:00 -2°C° 0 mm 1 m/s 766 mmHg 42%
    09:00 -1°C° 0 mm 1 m/s 766 mmHg 37%
    10:00 -2°C° 0 mm 2 m/s 766 mmHg 33%
    11:00 -1°C° 0 mm 2 m/s 766 mmHg 31%
    12:00 -1°C° 0 mm 2 m/s 766 mmHg 28%
    13:00 +1°C° 0 mm 2 m/s 766 mmHg 26%
    14:00 +1°C° 0 mm 2 m/s 765 mmHg 27%
    15:00 +1°C° 0 mm 2 m/s 765 mmHg 28%
    16:00 +1°C° 0 mm 2 m/s 765 mmHg 29%
    17:00 -1°C° 0 mm 2 m/s 765 mmHg 33%
    18:00 -2°C° 0 mm 2 m/s 765 mmHg 36%
    19:00 -3°C° 0 mm 2 m/s 765 mmHg 40%
    20:00 -3°C° 0 mm 2 m/s 764 mmHg 40%
    21:00 -3°C° 0 mm 2 m/s 764 mmHg 40%
    22:00 -3°C° 0 mm 2 m/s 764 mmHg 40%
    23:00 -1°C° 0 mm 1 m/s 764 mmHg 39%

    Poimâine, 24 Februarie, Duminică

    Timp Temperatura Precipitaţii Vânt Presiune Umiditate
    00:00 -1°C° 0 mm 1 m/s 764 mmHg 37%
    01:00 0°C° 0 mm 1 m/s 764 mmHg 36%
    02:00 0°C° 0 mm 1 m/s 763 mmHg 35%
    03:00 0°C° 0 mm 1 m/s 763 mmHg 33%
    04:00 -1°C° 0 mm 0 m/s 763 mmHg 32%
    05:00 -1°C° 0 mm 0 m/s 763 mmHg 31%
    06:00 0°C° 0 mm 0 m/s 763 mmHg 31%
    07:00 +1°C° 0 mm 1 m/s 763 mmHg 30%
    08:00 +2°C° 0 mm 1 m/s 763 mmHg 28%
    09:00 +3°C° 0 mm 1 m/s 763 mmHg 27%
    10:00 +5°C° 0 mm 1 m/s 763 mmHg 25%
    11:00 +5°C° 0 mm 2 m/s 763 mmHg 26%
    12:00 +6°C° 0 mm 2 m/s 762 mmHg 26%
    13:00 +7°C° 0 mm 2 m/s 762 mmHg 26%
    14:00 +7°C° 0 mm 2 m/s 762 mmHg 32%
    15:00 +7°C° 0 mm 2 m/s 762 mmHg 38%
    16:00 +6°C° 0 mm 2 m/s 761 mmHg 44%
    17:00 +5°C° 0 mm 2 m/s 762 mmHg 47%
    18:00 +4°C° 0 mm 2 m/s 762 mmHg 50%
    19:00 +2°C° 0 mm 2 m/s 762 mmHg 53%
    20:00 +2°C° 0 mm 2 m/s 762 mmHg 55%
    21:00 +2°C° 0 mm 2 m/s 762 mmHg 56%
    22:00 +2°C° 0 mm 2 m/s 762 mmHg 57%
    23:00 +2°C° 0 mm 2 m/s 762 mmHg 58%

    25 Februarie, Luni

    Timp Temperatura Precipitaţii Vânt Presiune Umiditate
    00:00 +1°C° 0 mm 2 m/s 762 mmHg 59%
    01:00 +1°C° 0 mm 2 m/s 762 mmHg 60%
    02:00 +1°C° 0 mm 2 m/s 762 mmHg 61%
    03:00 +1°C° 0 mm 2 m/s 762 mmHg 62%
    04:00 +1°C° 0 mm 2 m/s 762 mmHg 63%
    05:00 +1°C° 0 mm 2 m/s 762 mmHg 65%
    06:00 +1°C° 0 mm 2 m/s 762 mmHg 67%
    07:00 +1°C° 0 mm 2 m/s 762 mmHg 68%
    08:00 +1°C° 0 mm 3 m/s 762 mmHg 65%
    09:00 +3°C° 0 mm 3 m/s 762 mmHg 61%
    10:00 +4°C° 0 mm 3 m/s 763 mmHg 57%
    11:00 +5°C° 0 mm 3 m/s 762 mmHg 58%
    12:00 +7°C° 0 mm 3 m/s 762 mmHg 59%
    13:00 +8°C° 0 mm 3 m/s 762 mmHg 60%
    14:00 +8°C° 0 mm 3 m/s 762 mmHg 62%
    15:00 +8°C° 0 mm 2 m/s 761 mmHg 64%
    16:00 +8°C° 0 mm 2 m/s 761 mmHg 66%
    17:00 +7°C° 0 mm 2 m/s 761 mmHg 72%
    18:00 +6°C° 0 mm 2 m/s 761 mmHg 77%
    19:00 +4°C° 0 mm 2 m/s 761 mmHg 82%
    20:00 +4°C° 0 mm 2 m/s 761 mmHg 82%
    21:00 +4°C° 0 mm 2 m/s 761 mmHg 82%
    22:00 +2°C° 0 mm 3 m/s 761 mmHg 81%
    23:00 +2°C° 0 mm 3 m/s 761 mmHg 80%

    26 Februarie, Marţi

    Timp Temperatura Precipitaţii Vânt Presiune Umiditate
    00:00 +2°C° 0 mm 3 m/s 760 mmHg 79%
    01:00 +2°C° 0 mm 3 m/s 760 mmHg 77%
    02:00 +2°C° 0 mm 3 m/s 760 mmHg 76%
    03:00 +2°C° 0 mm 3 m/s 760 mmHg 75%
    04:00 +2°C° 0 mm 3 m/s 759 mmHg 74%
    05:00 +2°C° 0 mm 3 m/s 759 mmHg 72%
    06:00 +2°C° 0 mm 3 m/s 759 mmHg 70%
    07:00 +1°C° 0 mm 4 m/s 759 mmHg 68%
    08:00 +3°C° 0 mm 4 m/s 759 mmHg 63%
    09:00 +5°C° 0 mm 5 m/s 759 mmHg 58%
    10:00 +7°C° 0 mm 5 m/s 759 mmHg 53%
    11:00 +8°C° 0 mm 6 m/s 758 mmHg 50%
    12:00 +9°C° 0 mm 6 m/s 758 mmHg 47%
    13:00 +11°C° 0 mm 6 m/s 758 mmHg 44%
    14:00 +10°C° 0 mm 6 m/s 757 mmHg 46%
    15:00 +10°C° 0 mm 6 m/s 757 mmHg 47%
    16:00 +10°C° 0 mm 6 m/s 757 mmHg 49%
    17:00 +9°C° 0 mm 5 m/s 757 mmHg 55%
    18:00 +7°C° 0 mm 5 m/s 757 mmHg 61%
    19:00 +6°C° 0 mm 4 m/s 757 mmHg 67%
    20:00 +5°C° 0 mm 4 m/s 757 mmHg 70%
    21:00 +5°C° 0 mm 3 m/s 757 mmHg 74%
    22:00 +4°C° 0 mm 3 m/s 758 mmHg 77%
    23:00 +4°C° 0 mm 3 m/s 757 mmHg 78%

    27 Februarie, Miercuri

    Timp Temperatura Precipitaţii Vânt Presiune Umiditate
    00:00 +5°C° 0 mm 2 m/s 757 mmHg 80%
    01:00 +4°C° 0 mm 2 m/s 757 mmHg 81%
    02:00 +4°C° 0 mm 2 m/s 757 mmHg 82%
    03:00 +4°C° 0 mm 2 m/s 757 mmHg 82%
    04:00 +3°C° 0 mm 2 m/s 757 mmHg 83%
    05:00 +3°C° 0 mm 2 m/s 757 mmHg 83%
    06:00 +3°C° 0 mm 2 m/s 756 mmHg 83%
    07:00 +3°C° 0 mm 2 m/s 756 mmHg 83%
    08:00 +5°C° 0 mm 2 m/s 756 mmHg 76%
    09:00 +7°C° 0 mm 2 m/s 756 mmHg 68%
    10:00 +9°C° 0 mm 2 m/s 756 mmHg 61%
    11:00 +10°C° 0 mm 3 m/s 755 mmHg 56%
    12:00 +12°C° 0 mm 3 m/s 755 mmHg 51%
    13:00 +13°C° 0 mm 3 m/s 754 mmHg 46%
    14:00 +13°C° 0 mm 3 m/s 753 mmHg 47%
    15:00 +13°C° 0 mm 3 m/s 753 mmHg 49%
    16:00 +13°C° 0 mm 3 m/s 752 mmHg 51%
    17:00 +12°C° 0 mm 3 m/s 751 mmHg 56%
    18:00 +10°C° 0 mm 3 m/s 751 mmHg 61%
    19:00 +8°C° 0 mm 3 m/s 751 mmHg 67%
    20:00 +8°C° 0 mm 3 m/s 750 mmHg 66%
    21:00 +8°C° 0 mm 3 m/s 750 mmHg 65%
    22:00 +8°C° 0 mm 3 m/s 749 mmHg 64%
    23:00 +6°C° 0 mm 4 m/s 749 mmHg 65%
    Arată mai mult